Location: Miles
(41.4492°N, 81.6087°W)
Time: 18:16:54
(UTC+00:00)

Tiros 1 despin weight - Pass Details

Date: 13 September 2024
Orbit: 573 x 615 km, 48.2° (Epoch: 04 October)

Event Time Altitude Azimuth Distance (km) Brightness Sun altitude
Rises 16:37:55 0° 283° (WNW) 2,879 ? 50.7°
Reaches altitude 10° 16:41:26 10° 255° (WSW) 1,961 ? 50.9°
Maximum altitude 16:43:24 13° 229° (SW) 1,775 ? 51.0°
Drops below altitude 10° 16:45:23 10° 203° (SSW) 1,944 ? 51.1°
Sets 16:48:50 0° 174° (S) 2,829 ? 51.2°
